Weather History for KLFK - May, 2014

Change the Weather History Date:

Friday, May 30, 2014

  Actual Average Record
Temperature  
Mean Temperature 79 °F 77 °F  
Max Temperature 86 °F 88 °F 99 °F (1998)
Min Temperature 71 °F 67 °F 49 °F (1984)
Degree Days  
Heating Degree Days 0 0  
Month to date heating degree days 11 1  
Since 1 July heating degree days 2125 1914  
Cooling Degree Days 14 12  
Month to date cooling degree days 286 278  
Year to date cooling degree days 480 454  
Growing Degree Days 28 (Base 50)    
Moisture  
Dew Point 69 °F    
Average Humidity 74    
Maximum Humidity 87    
Minimum Humidity 61    
Precipitation  
Precipitation 0.21 in 0.17 in 2.96 in (1950)
Month to date precipitation 7.94 4.48  
Year to date precipitation 16.18 19.36  
Snow  
Snow 0.00 in - - ()
Month to date snowfall 0.0  
Since 1 July snowfall 3.2  
Snow Depth 0.00 in    
Sea Level Pressure  
Sea Level Pressure 29.84 in    
Wind  
Wind Speed 3 mph (SE)    
Max Wind Speed 9 mph    
Max Gust Speed 12 mph    
Visibility 7 miles    
Events Rain    
T = Trace of Precipitation, MM = Missing Value Source: NWS Daily Summary

Daily Weather History Graph

Daily Weather History Graph

Search for Another Location

Airport or City:

Trip Planner

Search our weather history database for the weather conditions in past years. The results will help you decide how hot, cold, wet, or windy it might be!

Date:

Astronomy

May. 30, 2014 Rise Set
Actual Time 6:16 AM CDT 8:17 PM CDT
Civil Twilight 5:48 AM CDT 8:44 PM CDT
Nautical Twilight 5:15 AM CDT 9:18 PM CDT
Astronomical Twilight 4:39 AM CDT 9:53 PM CDT
Moon 7:57 AM CDT 9:58 PM CDT
Length of Visible Light 14h 56m
Length of Day
14h 01m
Waxing Crescent, 4% of the Moon is Illuminated
May 30
Waxing Crescent
Jun 5
First Quarter
Jun 12
Full
Jun 19
Last Quarter
Jun 27
New

Hourly Weather History & Observations

Time (CDT) Temp. Heat Index Dew Point Humidity Pressure Visibility Wind Dir Wind Speed Gust Speed Precip Events Conditions
12:53 AM 73.9 °F - 69.1 °F 85% 29.83 in 6.0 mi Calm Calm - N/A   Haze
1:53 AM 73.0 °F - 68.0 °F 84% 29.81 in 6.0 mi Calm Calm - N/A   Haze
2:53 AM 72.0 °F - 66.9 °F 84% 29.81 in 7.0 mi Calm Calm - N/A   Clear
3:53 AM 72.0 °F - 66.9 °F 84% 29.82 in 6.0 mi ESE 3.5 mph - N/A   Haze
4:53 AM 72.0 °F - 66.9 °F 84% 29.82 in 6.0 mi Calm Calm - N/A   Haze
5:53 AM 72.0 °F - 66.9 °F 84% 29.82 in 7.0 mi Calm Calm - N/A   Mostly Cloudy
6:53 AM 72.0 °F - 66.9 °F 84% 29.83 in 5.0 mi ESE 3.5 mph - N/A   Haze
7:53 AM 75.0 °F - 68.0 °F 79% 29.84 in 8.0 mi WNW 3.5 mph - N/A   Overcast
8:46 AM 73.0 °F - 68.0 °F 84% 29.87 in 2.0 mi Calm Calm - 0.03 in Rain Rain
8:53 AM 73.0 °F - 69.1 °F 87% 29.86 in 1.5 mi WNW 4.6 mph - 0.06 in Rain Rain
9:11 AM 73.9 °F - 69.1 °F 85% 29.87 in 3.0 mi Calm Calm - 0.06 in Rain Light Rain
9:53 AM 75.0 °F - 70.0 °F 84% 29.87 in 4.0 mi West 4.6 mph - 0.08 in Rain Light Rain
10:18 AM 73.9 °F - 70.0 °F 87% 29.89 in 3.0 mi WNW 4.6 mph - 0.01 in Rain Light Rain
10:28 AM 73.9 °F - 70.0 °F 87% 29.89 in 2.0 mi West 3.5 mph - 0.02 in Rain Light Rain
10:53 AM 73.9 °F - 70.0 °F 87% 29.88 in 2.5 mi Calm Calm - 0.05 in Rain Light Rain
11:14 AM 75.0 °F - 71.1 °F 87% 29.88 in 3.0 mi Calm Calm - 0.02 in Rain Light Rain
11:35 AM 75.9 °F - 71.1 °F 85% 29.88 in 9.0 mi SSE 4.6 mph - 0.02 in   Overcast
11:53 AM 75.9 °F - 71.1 °F 85% 29.87 in 10.0 mi ESE 4.6 mph - 0.02 in   Overcast
12:53 PM 79.0 °F - 72.0 °F 79% 29.86 in 10.0 mi SSE 5.8 mph - N/A   Overcast
1:53 PM 82.0 °F 85.9 °F 70.0 °F 67% 29.85 in 10.0 mi SE 3.5 mph - N/A   Overcast
2:53 PM 84.9 °F 88.8 °F 69.1 °F 59% 29.83 in 10.0 mi Variable 3.5 mph - N/A   Clear
3:53 PM 84.9 °F 88.8 °F 69.1 °F 59% 29.82 in 10.0 mi SSE 6.9 mph - N/A   Clear
5:53 PM 84.9 °F 88.8 °F 69.1 °F 59% 29.80 in 10.0 mi Variable 3.5 mph - N/A   Scattered Clouds
6:53 PM 84.0 °F 87.8 °F 69.1 °F 61% 29.79 in 10.0 mi SE 5.8 mph - N/A   Partly Cloudy
7:53 PM 80.1 °F 83.8 °F 72.0 °F 76% 29.80 in 10.0 mi Calm Calm - N/A   Clear
8:53 PM 78.1 °F - 72.0 °F 81% 29.82 in 10.0 mi ENE 3.5 mph - N/A   Mostly Cloudy
9:53 PM 77.0 °F - 71.1 °F 82% 29.83 in 10.0 mi East 3.5 mph - N/A   Mostly Cloudy
10:53 PM 77.0 °F - 70.0 °F 79% 29.86 in 10.0 mi East 8.1 mph - N/A   Mostly Cloudy
11:53 PM 75.0 °F - 70.0 °F 84% 29.86 in 10.0 mi Calm Calm - N/A   Clear